ATLAS 5 CENTAUR DEB, 44015

Orbit data source: Space-Track

ATLAS 5 CENTAUR DEB, 44015 is space debris in HEO originally from a launch on Wed, 17 Sep 2014 UTC launched from the Air Force Eastern Test Range (AFETR). Debris objects in space refer to the collection of defunct objects orbiting the Earth. Examples of debris include non-operational satellites, rocket bodies, and fragments generated from explosions, collisions, or faulty payload assembly.

Loading next visibility...
Identifier
44015, 2014-055BW
Orbit
HEO
Country
Flag of USUS
Related business
Flag of USUnited Launch Alliance/Lockheed Martin (US)
Manufacturer
Unknown
Mission
Spacecraft
Bus & Motor
Unknown
Mass
Unknown
Launch date (UTC)
Icon of a cake. It is the launch day of the satellite!2014-09-17 (11 years ago)
Launch vehicle
Unknown
Launch site
Air Force Eastern Test Range (AFETR)
Object type
Payload
Rocket body
Debris
Shape & HBR
Unknown
Radar Cross Section
RCS unknown

Expand to show TLE details & history
Last TLE update: 2 days ago

TLE from 2 days ago
0 ATLAS 5 CENTAUR DEB
1 44015U 14055BW  25259.18722600  .00000011  00000-0  00000-0 0  9990
2 44015  20.9556 116.7086 5044477 214.4223  99.1672  1.95141661 49215
Epoch: 2025-09-16T04:29Z
TLE epoch observation values (Epoch: 2025-09-16T04:29:36.326Z)
Latitude
0.00002°
Longitude
53.98963°
Altitude
28,160.078 km
Speed
2.889 km/s
True Right ascension
07h 47m 05s
True Declination
0° 00' 00"
Sunlit
Object was in daylight at epoch
Visualization orbit readout
Latitude
Unknown
Longitude
Unknown
Altitude
Unknown
Speed
Unknown
Apparent Right ascension
Unknown
Apparent Declination
Unknown
Sunlit
N/A
Visualization observer readout
Local Sidereal Time
13:36:45
Azimuth
Unknown
Elevation
Unknown
Doppler factor
Unknown
Orbital elements
Apogee altitude
34,320.39 km
Perigee altitude
7,027.612 km
Semi-major axis
27,052.138 km
Eccentricity
0.50445
Inclination
20.9556°
RAAN
116.7086°
Arg. of periapsis
214.4223°
True anomaly
145.6001°
Mean anomaly
99.1672°
Eccentric anomaly
123.31904°
Mean motion
0.4878 °/min
Orbital period
738.01 mins
BSTAR
0
Loading maneuver chart data...
Computing Atmospheric mass density...

Documentation

Showing up to 5 results
|